GW6867 Weather Reports


time (UTC)temp
F
wind
direction
speed
knots
gust
knots
rain 1hr
in
rain 24hr
in
rain mn
in
humidity
%
barometer
mb
20260504050403 40 149 0.0 0.0 0.00 0.00 0.00 78 1010.5
20260504045900 40 149 0.0 0.0 0.00 0.00 0.00 78 1010.7
20260504045355 40 148 0.0 0.0 0.00 0.00 0.00 78 1010.6
20260504044853 40 148 0.0 0.9 0.00 0.00 0.00 78 1010.8
20260504044350 40 147 0.0 0.9 0.00 0.00 0.00 78 1010.7
20260504043847 40 162 0.0 0.0 0.00 0.00 0.00 77 1010.8
20260504043344 40 162 0.0 0.9 0.00 0.00 0.00 77 1010.8
20260504042841 40 180 0.0 0.0 0.00 0.00 0.00 77 1010.8
20260504042338 40 180 0.0 0.0 0.00 0.00 0.00 77 1010.9
20260504041834 40 180 0.0 0.0 0.00 0.00 0.00 78 1011.1
20260504041330 40 180 0.0 0.0 0.00 0.00 0.00 78 1011.2
20260504040826 39 180 0.0 0.0 0.00 0.00 0.00 77 1011.0
20260504040324 39 180 0.9 0.9 0.00 0.00 0.00 78 1010.9
20260504035820 39 180 0.9 0.9 0.00 0.00 0.00 77 1011.1
20260504035318 39 180 0.9 0.9 0.00 0.00 0.00 78 1011.0
20260504034815 39 179 0.0 0.0 0.00 0.00 0.00 79 1010.9
20260504034312 39 179 0.0 0.0 0.00 0.00 0.00 79 1011.1
20260504033809 39 179 0.0 0.0 0.00 0.00 0.00 79 1011.1
20260504033307 39 179 0.0 0.0 0.00 0.00 0.00 79 1010.9
20260504032803 39 179 0.0 0.0 0.00 0.00 0.00 80 1010.9
20260504032300 38 179 0.0 0.9 0.00 0.00 0.00 79 1011.0
20260504031757 38 188 2.6 2.6 0.00 0.00 0.00 81 1010.9
20260504031255 37 242 0.9 0.9 0.00 0.00 0.00 81 1010.9
20260504030750 37 242 0.0 0.0 0.00 0.00 0.00 81 1010.9
20260504030248 37 242 0.0 0.0 0.00 0.00 0.00 81 1011.2
20260504025744 37 242 0.0 0.0 0.00 0.00 0.00 80 1010.9
20260504025241 37 242 0.0 0.0 0.00 0.00 0.00 80 1011.0
20260504024738 37 242 0.0 0.0 0.00 0.00 0.00 80 1010.9
20260504024234 37 242 0.9 0.9 0.00 0.00 0.00 80 1011.0
20260504023731 37 242 0.0 0.0 0.00 0.00 0.00 79 1011.1
20260504023227 37 242 0.0 0.0 0.00 0.00 0.00 78 1010.8
20260504022723 37 242 0.0 0.0 0.00 0.00 0.00 78 1010.8
20260504022220 38 242 0.0 0.9 0.00 0.00 0.00 77 1010.9
20260504021717 38 243 0.0 0.0 0.00 0.00 0.00 76 1010.8
20260504021214 38 242 0.0 0.9 0.00 0.00 0.00 76 1010.7
20260504020711 38 242 0.0 0.0 0.00 0.00 0.00 76 1011.0
20260504020207 39 242 0.0 0.0 0.00 0.00 0.00 75 1010.9
20260504015704 39 242 0.0 0.0 0.00 0.00 0.00 76 1011.0
20260504015200 39 243 0.0 0.0 0.00 0.00 0.00 74 1011.0
20260504014656 40 243 0.0 0.0 0.00 0.00 0.00 73 1011.0
20260504014153 40 242 0.0 0.0 0.00 0.00 0.00 73 1011.0
20260504013651 41 243 0.0 0.0 0.00 0.00 0.00 72 1011.0
20260504013148 41 243 0.0 0.0 0.00 0.00 0.00 72 1011.1
20260504012645 41 243 0.0 0.0 0.00 0.00 0.00 73 1010.8
20260504012143 41 243 0.0 0.0 0.00 0.00 0.00 72 1010.9
20260504011639 41 243 0.0 0.0 0.00 0.00 0.00 71 1010.4
20260504011136 41 243 0.0 0.0 0.00 0.00 0.00 70 1010.6
20260504010631 42 243 0.0 0.0 0.00 0.00 0.00 69 1010.5
20260504010128 42 243 0.0 0.0 0.00 0.00 0.00 68 1010.7
20260504005625 43 243 0.0 0.0 0.00 0.00 0.00 67 1010.4
20260504005122 43 243 0.0 0.0 0.00 0.00 0.00 65 1010.5
20260504004620 43 243 0.0 0.0 0.00 0.00 0.00 64 1010.3
20260504004117 44 243 0.0 0.0 0.00 0.00 0.00 64 1010.4
20260504003613 45 243 0.0 0.0 0.00 0.00 0.00 62 1010.2
20260504003109 46 243 0.0 0.0 0.00 0.00 0.00 59 1010.1
20260504002606 47 244 0.0 0.0 0.00 0.00 0.00 56 1010.3
20260504002104 47 244 0.0 0.9 0.00 0.00 0.00 55 1010.1
20260504001602 48 244 0.0 0.0 0.00 0.00 0.00 54 1010.2
20260504001057 48 226 0.0 0.0 0.00 0.00 0.00 53 1010.0
20260504000555 49 227 0.0 0.9 0.00 0.00 0.00 51 1010.0
20260504000052 49 226 0.9 1.7 0.00 0.00 0.00 50 1010.0
20260503235550 49 288 0.9 1.7 0.00 0.00 0.00 50 1010.0
20260503235047 49 225 0.9 0.9 0.00 0.00 0.00 50 1009.8
20260503234545 49 318 1.7 1.7 0.00 0.00 0.00 49 1010.1
20260503234043 50 156 0.0 0.9 0.00 0.00 0.00 48 1010.2
20260503233538 50 91 1.7 2.6 0.00 0.00 0.00 48 1010.1
20260503233035 50 299 1.7 3.5 0.00 0.00 0.00 46 1010.0
20260503232532 50 295 0.9 0.9 0.00 0.00 0.00 46 1010.0
20260503232029 51 345 1.7 2.6 0.00 0.00 0.00 45 1009.9
20260503231527 51 222 2.6 2.6 0.00 0.00 0.00 44 1009.9
20260503231024 51 302 4.3 6.1 0.00 0.00 0.00 43 1009.7
20260503230520 51 304 2.6 2.6 0.00 0.00 0.00 42 1009.6
20260503230018 51 322 2.6 3.5 0.00 0.00 0.00 42 1009.5
20260503225515 51 300 0.9 0.9 0.00 0.00 0.00 43 1009.6
20260503225010 51 317 1.7 2.6 0.00 0.00 0.00 42 1009.2
20260503224507 51 320 1.7 2.6 0.00 0.00 0.00 41 1009.6
20260503224005 52 244 2.6 2.6 0.00 0.00 0.00 39 1009.5
20260503223503 52 267 1.7 1.7 0.00 0.00 0.00 39 1009.6
20260503222958 52 245 0.9 0.9 0.00 0.00 0.00 39 1009.5
20260503222457 52 9 1.7 2.6 0.00 0.00 0.00 38 1009.4
20260503221954 52 304 1.7 2.6 0.00 0.00 0.00 39 1009.3
20260503221452 52 241 0.9 0.9 0.00 0.00 0.00 38 1009.4
20260503220949 52 284 1.7 2.6 0.00 0.00 0.00 38 1009.4
20260503220445 52 270 1.7 1.7 0.00 0.00 0.00 37 1009.4
20260503215942 52 326 3.5 3.5 0.00 0.00 0.00 37 1009.5
20260503215439 52 231 0.9 0.9 0.00 0.00 0.00 38 1009.3
20260503214937 52 225 2.6 3.5 0.00 0.00 0.00 36 1009.6
20260503214435 53 229 1.7 2.6 0.00 0.00 0.00 35 1009.3
20260503213931 53 357 1.7 2.6 0.00 0.00 0.00 34 1008.9
20260503213430 53 153 0.9 0.9 0.00 0.00 0.00 34 1009.0
20260503212926 53 309 1.7 2.6 0.00 0.00 0.00 34 1009.0
20260503212423 53 304 2.6 3.5 0.00 0.00 0.00 34 1008.8
20260503211921 53 248 2.6 3.5 0.00 0.00 0.00 32 1009.0
20260503211417 53 315 1.7 2.6 0.00 0.00 0.00 33 1009.0
20260503210913 53 296 2.6 3.5 0.00 0.00 0.00 32 1008.9
20260503210410 53 312 3.5 5.2 0.00 0.00 0.00 32 1009.2
20260503205910 54 322 0.9 1.7 0.00 0.00 0.00 32 1008.9
20260503205408 54 311 3.5 3.5 0.00 0.00 0.00 31 1008.8
20260503204904 54 240 3.5 6.1 0.00 0.00 0.00 29 1008.7
20260503204401 55 322 2.6 2.6 0.00 0.00 0.00 29 1009.0
20260503203858 54 252 1.7 1.7 0.00 0.00 0.00 31 1008.8
20260503203355 55 302 1.7 2.6 0.00 0.00 0.00 32 1008.9
20260503202852 55 178 0.9 0.9 0.00 0.00 0.00 29 1009.0
20260503202350 56 305 1.7 2.6 0.00 0.00 0.00 33 1008.8
20260503201849 57 294 3.5 6.1 0.00 0.00 0.00 28 1008.8
20260503201345 56 310 1.7 2.6 0.00 0.00 0.00 33 1009.0
20260503200843 56 259 2.6 3.5 0.00 0.00 0.00 30 1009.2
20260503200338 55 309 0.9 0.9 0.00 0.00 0.00 34 1008.9
20260503195836 55 200 0.9 0.9 0.00 0.00 0.00 30 1009.3
20260503195332 55 308 1.7 2.6 0.00 0.00 0.00 33 1009.5
20260503194830 53 200 1.7 1.7 0.00 0.00 0.00 32 1009.7
20260503194325 54 299 2.6 3.5 0.00 0.00 0.00 35 1009.6
20260503193822 54 283 1.7 1.7 0.00 0.00 0.00 33 1009.5
20260503193318 54 311 1.7 2.6 0.00 0.00 0.00 33 1009.8
20260503192814 53 304 3.5 3.5 0.00 0.00 0.00 31 1009.8
20260503192309 54 301 5.2 7.0 0.00 0.00 0.00 31 1009.9
20260503191806 54 62 2.6 3.5 0.00 0.00 0.00 34 1009.5
20260503191303 53 171 5.2 6.1 0.00 0.00 0.00 35 1009.7
20260503190800 53 233 5.2 9.6 0.00 0.00 0.00 34 1009.9
20260503190257 52 301 1.7 2.6 0.00 0.00 0.00 37 1010.0
20260503185754 52 276 0.9 1.7 0.00 0.00 0.00 34 1009.9
20260503185249 51 287 1.7 3.5 0.00 0.00 0.00 38 1010.0
20260503184744 53 323 3.5 3.5 0.00 0.00 0.00 34 1010.1
20260503184241 53 186 0.9 0.9 0.00 0.00 0.00 32 1010.2
20260503183737 51 317 1.7 2.6 0.00 0.00 0.00 37 1010.1
20260503183235 50 345 3.5 6.1 0.00 0.00 0.00 37 1010.0
20260503182732 50 238 3.5 3.5 0.00 0.00 0.00 36 1010.3
20260503182231 49 355 1.7 1.7 0.00 0.00 0.00 40 1010.2
20260503181727 51 225 3.5 3.5 0.00 0.00 0.00 36 1010.4
20260503181224 51 315 1.7 2.6 0.00 0.00 0.00 40 1010.5
20260503180720 50 32 1.7 2.6 0.00 0.00 0.00 41 1010.4
20260503180219 48 239 1.7 1.7 0.00 0.00 0.00 40 1010.5
20260503175715 48 318 0.9 3.5 0.00 0.00 0.00 43 1010.4
20260503175213 48 47 0.9 1.7 0.00 0.00 0.00 43 1010.7
20260503174709 48 320 3.5 3.5 0.00 0.00 0.00 43 1010.7
20260503174207 47 315 2.6 2.6 0.00 0.00 0.00 44 1010.9
20260503173702 47 322 2.6 2.6 0.00 0.00 0.00 44 1010.8
20260503173158 48 353 1.7 2.6 0.00 0.00 0.00 44 1010.9
20260503172655 48 329 1.7 1.7 0.00 0.00 0.00 43 1010.9
20260503172152 47 216 0.9 0.9 0.00 0.00 0.00 45 1010.8
20260503171648 46 230 1.7 1.7 0.00 0.00 0.00 43 1011.2
20260503171146 45 317 1.7 2.6 0.00 0.00 0.00 44 1011.1
20260503170643 46 321 2.6 2.6 0.00 0.00 0.00 43 1011.1
20260503170140 45 149 1.7 2.6 0.00 0.00 0.00 43 1011.1
20260503150531 44 307 0.0 0.9 0.00 0.00 0.00 49 1011.1
20260503130926 42 328 2.6 2.6 0.00 0.00 0.00 56 1011.5
20260503130424 42 308 3.5 3.5 0.00 0.00 0.00 56 1011.5
20260503110829 37 213 0.0 0.9 0.00 0.00 0.00 77 1011.2
20260503110326 37 152 0.9 1.7 0.00 0.00 0.00 76 1010.9
20260503100252 32 231 0.0 0.0 0.00 0.00 0.00 92 1010.9
20260503090212 31 233 0.0 0.0 0.00 0.00 0.00 92 1011.0
20260503081144 31 233 0.0 0.0 0.00 0.00 0.00 92 1011.1
20260503080640 31 233 0.0 0.0 0.00 0.00 0.00 92 1011.2
20260503080137 30 233 0.0 0.0 0.00 0.00 0.00 92 1011.3
20260503072614 30 234 0.0 0.0 0.00 0.00 0.00 92 1011.3
20260503072111 30 234 0.0 0.0 0.00 0.00 0.00 92 1011.4
20260503071608 30 234 0.0 0.0 0.00 0.00 0.00 92 1011.3
20260503071105 30 234 0.0 0.0 0.00 0.00 0.00 91 1011.0
20260503070601 30 234 0.0 0.0 0.00 0.00 0.00 92 1011.4